Weather History for Norman, OK

Change the Weather History Date:

Sunday, August 4, 2013

  Actual Average Record
Temperature  
Mean Temperature 85 °F -  
Max Temperature 93 °F 92 °F 109 °F (2012)
Min Temperature 77 °F 67 °F 56 °F (1973)
Cooling Degree Days 20    
Growing Degree Days 35 (Base 50)    
Moisture  
Dew Point 72 °F    
Average Humidity 70    
Maximum Humidity 89    
Minimum Humidity 49    
Precipitation  
Precipitation 0.00 in - - ()
Sea Level Pressure  
Sea Level Pressure 30.02 in    
Wind  
Wind Speed 10 mph (SSE)    
Max Wind Speed 15 mph    
Max Gust Speed 21 mph    
Visibility 10 miles    
Events      
Averages and records for this station are not official NWS values.
T = Trace of Precipitation, MM = Missing Value Source: NWS Daily Summary

Daily Weather History Graph

Daily Weather History Graph

Search for Another Location

Airport:

Trip Planner

Search our weather history database for the weather conditions in past years. The results will help you decide how hot, cold, wet, or windy it might be!

Date:

Astronomy

Aug. 04, 2013 Rise Set
Actual Time 6:41 AM CDT 8:30 PM CDT
Civil Twilight 6:13 AM CDT 8:57 PM CDT
Nautical Twilight 5:40 AM CDT 9:31 PM CDT
Astronomical Twilight 5:04 AM CDT 10:06 PM CDT
Moon 4:44 AM CDT (8/4) 6:54 PM CDT (8/4)
Length of Visible Light 14h 44m
Length of Day
13h 48m
Waning Crescent, 4% of the Moon is Illuminated
Aug 4
Waning Crescent
Aug 6
New
Aug 14
First Quarter
Aug 20
Full
Aug 28
Last Quarter

Hourly Weather History & Observations

Time (CDT) Temp. Heat Index Dew Point Humidity Pressure Visibility Wind Dir Wind Speed Gust Speed Precip Events Conditions
12:15 AM 80.6 °F 85.4 °F 73.4 °F 79% 30.05 in 10.0 mi SE 10.4 mph - N/A   Clear
12:35 AM 80.6 °F 85.4 °F 73.4 °F 79% 30.04 in 10.0 mi SE 9.2 mph - N/A   Clear
12:55 AM 80.6 °F 85.4 °F 73.4 °F 79% 30.04 in 10.0 mi SE 11.5 mph - N/A   Clear
1:15 AM 78.8 °F - 73.4 °F 83% 30.03 in 10.0 mi ESE 8.1 mph - N/A   Clear
1:35 AM 78.8 °F - 73.4 °F 83% 30.02 in 10.0 mi SE 11.5 mph - N/A   Clear
1:55 AM 78.8 °F - 73.4 °F 83% 30.01 in 10.0 mi SE 11.5 mph - N/A   Clear
2:15 AM 78.8 °F - 73.4 °F 83% 30.00 in 10.0 mi SSE 11.5 mph - N/A   Clear
2:35 AM 78.8 °F - 73.4 °F 83% 29.99 in 10.0 mi SSE 15.0 mph 20.7 mph N/A   Clear
2:55 AM 77.0 °F - 73.4 °F 89% 30.01 in 10.0 mi SSE 11.5 mph - N/A   Clear
3:35 AM 77.0 °F - 73.4 °F 89% 30.02 in 10.0 mi SSE 9.2 mph - N/A   Clear
3:55 AM 77.0 °F - 73.4 °F 89% 30.04 in 10.0 mi SSE 6.9 mph - N/A   Clear
4:15 AM 77.0 °F - 71.6 °F 83% 30.04 in 10.0 mi SSE 8.1 mph - N/A   Clear
4:35 AM 77.0 °F - 71.6 °F 83% 30.03 in 10.0 mi SSE 8.1 mph - N/A   Clear
4:55 AM 77.0 °F - 71.6 °F 83% 30.03 in 10.0 mi SSE 9.2 mph - N/A   Clear
5:15 AM 77.0 °F - 71.6 °F 83% 30.03 in 10.0 mi SSE 9.2 mph - N/A   Clear
5:35 AM 77.0 °F - 71.6 °F 83% 30.03 in 10.0 mi South 9.2 mph - N/A   Clear
5:55 AM 77.0 °F - 71.6 °F 83% 30.04 in 10.0 mi South 8.1 mph - N/A   Clear
6:15 AM 77.0 °F - 71.6 °F 83% 30.04 in 10.0 mi South 8.1 mph - N/A   Clear
6:35 AM 77.0 °F - 71.6 °F 83% 30.04 in 10.0 mi SSE 5.8 mph - N/A   Clear
6:55 AM 77.0 °F - 71.6 °F 83% 30.05 in 10.0 mi SSE 5.8 mph - N/A   Clear
7:15 AM 77.0 °F - 71.6 °F 83% 30.06 in 10.0 mi NNE 4.6 mph - N/A   Clear
7:35 AM 77.0 °F - 71.6 °F 83% 30.07 in 10.0 mi NNE 5.8 mph - N/A   Clear
7:55 AM 77.0 °F - 71.6 °F 83% 30.07 in 10.0 mi NNE 5.8 mph - N/A   Clear
8:15 AM 77.0 °F - 71.6 °F 83% 30.08 in 10.0 mi SSE 5.8 mph - N/A   Clear
8:35 AM 77.0 °F - 71.6 °F 83% 30.08 in 10.0 mi SE 5.8 mph - N/A   Clear
8:55 AM 78.8 °F - 71.6 °F 78% 30.09 in 10.0 mi South 4.6 mph - N/A   Clear
9:15 AM 78.8 °F - 71.6 °F 78% 30.09 in 10.0 mi SSE 4.6 mph - N/A   Clear
9:35 AM 78.8 °F - 71.6 °F 78% 30.09 in 10.0 mi SSE 3.5 mph - N/A   Clear
9:55 AM 80.6 °F 84.6 °F 71.6 °F 74% 30.08 in 10.0 mi ESE 8.1 mph - N/A   Clear
10:35 AM 82.4 °F 88.2 °F 73.4 °F 74% 30.07 in 10.0 mi ESE 8.1 mph - N/A   Clear
11:15 AM 86.0 °F 93.4 °F 73.4 °F 66% 30.06 in 10.0 mi NE 9.2 mph - N/A   Clear
11:35 AM 87.8 °F 95.6 °F 73.4 °F 62% 30.06 in 10.0 mi SE 10.4 mph - N/A   Clear
11:55 AM 86.0 °F 93.4 °F 73.4 °F 66% 30.05 in 10.0 mi ENE 12.7 mph - N/A   Clear
12:15 PM 87.8 °F 95.6 °F 73.4 °F 62% 30.05 in 10.0 mi SSE 10.4 mph - N/A   Clear
12:35 PM 87.8 °F 95.6 °F 73.4 °F 62% 30.04 in 10.0 mi South 12.7 mph - N/A   Clear
12:55 PM 89.6 °F 98.2 °F 73.4 °F 59% 30.04 in 10.0 mi South 10.4 mph - N/A   Clear
1:15 PM 89.6 °F 98.2 °F 73.4 °F 59% 30.03 in 10.0 mi South 12.7 mph 16.1 mph N/A   Clear
1:35 PM 89.6 °F 99.8 °F 75.2 °F 62% 30.03 in 10.0 mi South 11.5 mph - N/A   Clear
1:55 PM 89.6 °F 98.2 °F 73.4 °F 59% 30.03 in 10.0 mi South 10.4 mph - N/A   Clear
2:15 PM 91.4 °F 102.5 °F 75.2 °F 59% 30.02 in 10.0 mi South 8.1 mph - N/A   Clear
2:35 PM 91.4 °F 100.1 °F 73.4 °F 55% 30.02 in 10.0 mi SW 9.2 mph - N/A   Clear
2:55 PM 91.4 °F 100.1 °F 73.4 °F 55% 30.01 in 10.0 mi South 6.9 mph 16.1 mph N/A   Clear
3:15 PM 91.4 °F 100.1 °F 73.4 °F 55% 30.00 in 10.0 mi SSW 11.5 mph - N/A   Scattered Clouds
3:35 PM 93.2 °F 102.4 °F 73.4 °F 52% 30.00 in 10.0 mi South 11.5 mph - N/A   Clear
3:55 PM 93.2 °F 102.4 °F 73.4 °F 52% 29.99 in 10.0 mi SSW 13.8 mph - N/A   Clear
4:15 PM 93.2 °F 100.5 °F 71.6 °F 49% 29.99 in 10.0 mi South 15.0 mph - N/A   Clear
4:55 PM 93.2 °F 100.5 °F 71.6 °F 49% 29.98 in 10.0 mi South 8.1 mph - N/A   Clear
5:35 PM 91.4 °F 100.1 °F 73.4 °F 55% 29.97 in 10.0 mi SSE 10.4 mph - N/A   Clear
5:55 PM 91.4 °F 98.4 °F 71.6 °F 52% 29.96 in 10.0 mi SSE 11.5 mph 19.6 mph N/A   Clear
6:15 PM 91.4 °F 98.4 °F 71.6 °F 52% 29.96 in 10.0 mi SSE 13.8 mph - N/A   Clear
6:55 PM 91.4 °F 98.4 °F 71.6 °F 52% 29.95 in 10.0 mi SSE 10.4 mph - N/A   Clear
7:15 PM 91.4 °F 98.4 °F 71.6 °F 52% 29.95 in 10.0 mi SSE 10.4 mph - N/A   Clear
7:35 PM 89.6 °F 96.2 °F 71.6 °F 55% 29.96 in 10.0 mi SSE 9.2 mph - N/A   Clear
7:55 PM 89.6 °F 96.2 °F 71.6 °F 55% 29.96 in 10.0 mi SSE 12.7 mph - N/A   Clear
8:15 PM 87.8 °F 93.8 °F 71.6 °F 58% 29.97 in 10.0 mi SE 10.4 mph - N/A   Clear
8:35 PM 87.8 °F 93.8 °F 71.6 °F 58% 29.97 in 10.0 mi SSE 11.5 mph - N/A   Clear
8:55 PM 86.0 °F 91.8 °F 71.6 °F 62% 29.97 in 10.0 mi SSE 11.5 mph - N/A   Clear
9:15 PM 86.0 °F 91.8 °F 71.6 °F 62% 29.97 in 10.0 mi SSE 11.5 mph - N/A   Clear
9:35 PM 86.0 °F 91.8 °F 71.6 °F 62% 29.97 in 10.0 mi SSE 12.7 mph 18.4 mph N/A   Clear
9:55 PM 84.2 °F 89.6 °F 71.6 °F 66% 29.98 in 10.0 mi SSE 11.5 mph - N/A   Clear
10:15 PM 84.2 °F 89.6 °F 71.6 °F 66% 29.99 in 10.0 mi SSE 10.4 mph - N/A   Clear
10:35 PM 82.4 °F 86.3 °F 69.8 °F 66% 29.99 in 10.0 mi SSE 10.4 mph - N/A   Clear
10:55 PM 82.4 °F 86.3 °F 69.8 °F 66% 29.99 in 10.0 mi SSE 11.5 mph 16.1 mph N/A   Clear
11:15 PM 82.4 °F 87.2 °F 71.6 °F 70% 29.99 in 10.0 mi SSE 12.7 mph - N/A   Clear
11:35 PM 82.4 °F 87.2 °F 71.6 °F 70% 29.99 in 10.0 mi SSE 11.5 mph - N/A   Clear
11:55 PM 80.6 °F 83.9 °F 69.8 °F 70% 29.99 in 10.0 mi SSE 12.7 mph - N/A   Clear